This is the latest recevied weather packets stored in our database for station/object SQ5DN-4. If no packets are shown the sender has not sent any weather packets the latest 1 day(s).
| Time | Temp. | Humidity | Pressure | Rain* | Wind** | Luminosity | Snow |
|---|---|---|---|---|---|---|---|
| 1778053847 | 22.78° C | 46% | 1002 hPa | - | - | - | - |
| 1778053327 | 22.78° C | 45% | 1002 hPa | - | - | - | - |
| 1778052747 | 22.78° C | 45% | 1002 hPa | - | - | - | - |
| 1778052227 | 21.67° C | 48% | 1002 hPa | - | - | - | - |
| 1778051682 | 20.56° C | 51% | 1002 hPa | - | - | - | - |
| 1778051192 | 20.56° C | 51% | 1002 hPa | - | - | - | - |
| 1778050667 | 20.56° C | 51% | 1002 hPa | - | - | - | - |
| 1778050117 | 19.44° C | 55% | 1002 hPa | - | - | - | - |
| 1778049607 | 18.33° C | 60% | 1002 hPa | - | - | - | - |
| 1778048517 | 17.78° C | 62% | 1002 hPa | - | - | - | - |
| 1778047967 | 17.78° C | 63% | 1002 hPa | - | - | - | - |
| 1778047467 | 16.67° C | 67% | 1002 hPa | - | - | - | - |
| 1778046882 | 16.11° C | 70% | 1002 hPa | - | - | - | - |
| 1778046352 | 16.11° C | 70% | 1002 hPa | - | - | - | - |
| 1778045802 | 15.56° C | 73% | 1002 hPa | - | - | - | - |
| 1778045319 | 15.56° C | 75% | 1002 hPa | - | - | - | - |
| 1778044737 | 14.44° C | 77% | 1002 hPa | - | - | - | - |
| 1778044217 | 13.89° C | 80% | 1002 hPa | - | - | - | - |
| 1778043692 | 13.33° C | 83% | 1002 hPa | - | - | - | - |
| 1778043197 | 12.78° C | 84% | 1002 hPa | - | - | - | - |
| 1778042152 | 12.78° C | 85% | 1002 hPa | - | - | - | - |
| 1778041602 | 12.22° C | 86% | 1002 hPa | - | - | - | - |
| 1778041077 | 11.11° C | 89% | 1002 hPa | - | - | - | - |
| 1778040482 | 11.11° C | 89% | 1002 hPa | - | - | - | - |
| 1778039942 | 11.11° C | 89% | 1002 hPa | - | - | - | - |
* Rain since midnight (hover to see other rain measurements)
** Current wind speed in m/s (hover to see current wind gust speed)